Regional Weather Roundup
Issued by NWS State College, PA

Home | Current Version | Previous Version | Text Only | Print | Product List | Glossary Off
Versions: 1 2 3 4 5 6 7 8 9 10 11 12 13 14 15 16 17 18 19 20 21 22 23 24 25 26 27 28 29 30 31 32 33 34 35 36 37 38 39 40 41 42 43 44 45 46 47 48 49 50

000
ASUS41 KCTP 040510
RWRCTP

REGIONAL WEATHER ROUNDUP
NATIONAL WEATHER SERVICE STATE COLLEGE PA
1200 AM EST WED MAR 04 2015

Note: "fair" indicates few or no clouds below 12,000 feet with no
significant weather and/or obstructions to visibility.

* = STATION THAT DOES NOT REPORT PRECIPITATION /E.G. RAIN...SNOW...ETC/
    THUNDER OR FOG.

PAZ002>004-007>009-013>016-020>023-029>032-040600-
WESTERN PENNSYLVANIA

CITY           SKY/WX    TMP DP  RH WIND       PRES   REMARKS
ERIE           CLOUDY    37  32  82 W15G32    29.73S
MEADVILLE        N/A     37  34  89 SW12      29.72R
FRANKLIN*      CLOUDY    37  36  93 W12G18    29.75R
NEW CASTLE     LGT RAIN  39  37  92 SW9       29.77S
BEAVER COUNTY  NOT AVBL
BUTLER*        CLOUDY    41  39  93 NW7       29.76F
PITTSBURGH INT LGT RAIN  44  42  93 W13       29.75F
PITTSBURGH     LGT RAIN  45  41  86 W12       29.74S
INDIANA*       CLOUDY    45  45 100 W14G22    29.78S FOG
LATROBE        RAIN      48  48 100 W10       29.77S
WASHINGTON CO* CLOUDY    46  45  93 W8        29.79R
$$

PAZ004>006-010>012-017>019-024>028-033>037-041-042-045-046-049>053-040600-
CENTRAL PENNSYLVANIA

CITY           SKY/WX    TMP DP  RH WIND       PRES   REMARKS
BRADFORD       LGT RAIN  37  34  89 W12       29.65F FOG
DUBOIS         FOG       38  37  97 W16       29.71F VSB 1
CLEARFIELD     RAIN      32  31  96 S3        29.73S VSB 1/2
JOHNSTOWN      RAIN      46  46 100 W14G23    29.73R VSB 1
ALTOONA        LGT RAIN  33  32  96 NW3       29.76R FOG
STATE COLLEGE  MIX PCPN  32  31  98 SW3       29.75F
WILLIAMSPORT   CLOUDY    30  25  81 VRB3      29.78S
SELINSGROVE    MIX PCPN  31  28  89 S5        29.81S
FT INDIANTOWN  MOCLDY    30  28  94 CALM      29.81F FOG
CAPITAL CITY   CLOUDY    33  28  81 CALM      29.82F
HARRISBURG     CLOUDY    32  29  88 NE3       29.82F
YORK           LGT RAIN  34  30  85 SW7       29.81F FOG
$$

PAZ038>040-043-044-047-048-054-055-060>062-067>071-040600-
EASTERN PENNSYLVANIA

CITY           SKY/WX    TMP DP  RH WIND       PRES   REMARKS
SCRANTON       CLOUDY    30  26  85 S7        29.73F FOG
MOUNT POCONO   CLOUDY    27  25  92 W17G26    29.70F FOG     WCI  14
ALLENTOWN      SLEET     34  30  86 SW3       29.80F
QUAKERTOWN*    CLOUDY    32  32 100 CALM      29.83F
READING        CLOUDY    33  30  88 S3        29.81F
LANCASTER      CLOUDY    33  29  85 S6        29.82F
COATESVILLE    CLOUDY    32  32 100 SW5       29.84F
POTTSTOWN      CLOUDY    33  32  96 S7        29.84F
BLUE BELL      CLOUDY    34  34 100 SW3       29.85F
DOYLESTOWN     CLOUDY    31  31 100 S9        29.81F
WILLOW GROVE   NOT AVBL
NORTH PHILA    CLOUDY    35  30  82 SW12      29.88F HAZE
PHILADELPHIA   CLOUDY    34  32  92 SW10      29.88F FOG
$$



USA.gov is the U.S. government's official web portal to all federal, state and local government web resources and services.